TIANTONG-1 1 (41725 NORAD) Tracking and Keplerian Element Data

This shows tracking and keplerian element data for the satellite.

Feedback or suggestion? Click here.




ElementValue
Catalog41725
NameTIANTONG-1 1
Epoch Orbit1483
Epoch Day222.91007632
Epoch Year2020
RAAN335.2043
Inclination2.9151
Eccentricity6.49E-05
Argument of Perigee171.5224
Mean Anonmoly241.1457
Mean Motion1.00272624
Decay Rate-3.18E-06
L11 41725U 16048A 20222.91007632 -.00000318 00000-0 00000+0 0 9996
L22 41725 2.9151 335.2043 0000649 171.5224 241.1457 1.00272624 14834

Live tracking and technical data element details for TIANTONG-1 1 (NORAD 41725). TIANTONG-1 1 can be tracked NOW for your location showing map with azimuth and elevation plus other details from your city location.

Track the satellite on the map from your city or location and see movement details for azimuth, elevation, latitude, longitude, range, height, and movement on the map or in text.







IsCatalogInMostPopularTable: catalog: 41725, numindb: 681
Update: records affected: 1



GetName: 41725 TIANTONG-1 1

Hit Count: updated at: Mon, 10 Aug 2020 21:25:00 GMT